When you browse on this site, cookies collect data to enhance your experience and personalize the content and advertising you see.
Visit our Privacy Policy to learn more. By continuing to use the site, you agree to this use of cookies and data.
  • In Lithuania
  • List of Countries
  • For 7 days
  • Water Temperature
  • Satellite Maps
  • Weather Map
  • Weather Widgets
  • user-avatar
    Login

    Hourly Weather Sarbicko

    Today, 22 February, Friday

    Time Temperature Precipitation Wind Pressure Humidity
    00:00 +5°C° 0.6 mm 5 mps 754 mmHg 94%
    01:00 +4°C° 0 mm 4 mps 755 mmHg 93%
    02:00 +2°C° 0.3 mm 5 mps 755 mmHg 89%
    03:00 -1°C° 0.3 mm 6 mps 756 mmHg 86%
    04:00 -3°C° 0.3 mm 7 mps 756 mmHg 82%
    05:00 -3°C° 0 mm 7 mps 758 mmHg 76%
    06:00 -4°C° 0 mm 7 mps 759 mmHg 71%
    07:00 -6°C° 0 mm 7 mps 761 mmHg 66%
    08:00 -4°C° 0 mm 7 mps 762 mmHg 60%
    09:00 -4°C° 0 mm 7 mps 764 mmHg 54%
    10:00 -4°C° 0 mm 6 mps 765 mmHg 49%
    11:00 -4°C° 0 mm 6 mps 765 mmHg 46%
    12:00 -3°C° 0 mm 6 mps 766 mmHg 44%
    13:00 -3°C° 0 mm 6 mps 767 mmHg 41%
    14:00 -2°C° 0 mm 5 mps 767 mmHg 42%
    15:00 -2°C° 0 mm 5 mps 767 mmHg 42%
    16:00 -4°C° 0 mm 5 mps 768 mmHg 43%
    17:00 -3°C° 0 mm 4 mps 768 mmHg 45%
    18:00 -4°C° 0 mm 4 mps 769 mmHg 47%
    19:00 -4°C° 0 mm 4 mps 770 mmHg 49%
    20:00 -4°C° 0 mm 4 mps 770 mmHg 48%
    21:00 -4°C° 0 mm 4 mps 771 mmHg 46%
    22:00 -4°C° 0 mm 4 mps 771 mmHg 44%
    23:00 -4°C° 0 mm 3 mps 772 mmHg 43%

    Tomorrow, 23 February, Saturday

    Time Temperature Precipitation Wind Pressure Humidity
    00:00 -5°C° 0 mm 3 mps 772 mmHg 41%
    01:00 -5°C° 0 mm 3 mps 772 mmHg 40%
    02:00 -4°C° 0 mm 2 mps 772 mmHg 40%
    03:00 -4°C° 0 mm 2 mps 772 mmHg 40%
    04:00 -4°C° 0 mm 2 mps 772 mmHg 40%
    05:00 -4°C° 0 mm 2 mps 772 mmHg 41%
    06:00 -2°C° 0 mm 1 mps 772 mmHg 41%
    07:00 -2°C° 0 mm 1 mps 773 mmHg 42%
    08:00 -1°C° 0 mm 1 mps 772 mmHg 39%
    09:00 -1°C° 0 mm 1 mps 772 mmHg 35%
    10:00 0°C° 0 mm 1 mps 772 mmHg 32%
    11:00 0°C° 0 mm 1 mps 772 mmHg 30%
    12:00 +1°C° 0 mm 1 mps 772 mmHg 28%
    13:00 +2°C° 0 mm 1 mps 772 mmHg 25%
    14:00 +2°C° 0 mm 1 mps 772 mmHg 27%
    15:00 +2°C° 0 mm 1 mps 771 mmHg 28%
    16:00 +2°C° 0 mm 1 mps 771 mmHg 29%
    17:00 +1°C° 0 mm 1 mps 771 mmHg 31%
    18:00 0°C° 0 mm 1 mps 771 mmHg 34%
    19:00 0°C° 0 mm 1 mps 770 mmHg 36%
    20:00 0°C° 0 mm 1 mps 770 mmHg 36%
    21:00 -2°C° 0 mm 2 mps 770 mmHg 37%
    22:00 -2°C° 0 mm 2 mps 770 mmHg 38%
    23:00 -2°C° 0 mm 2 mps 770 mmHg 38%

    Day after tomorrow, 24 February, Sunday

    Time Temperature Precipitation Wind Pressure Humidity
    00:00 -2°C° 0 mm 2 mps 770 mmHg 38%
    01:00 -2°C° 0 mm 3 mps 769 mmHg 39%
    02:00 -2°C° 0 mm 3 mps 769 mmHg 39%
    03:00 -2°C° 0 mm 3 mps 769 mmHg 39%
    04:00 -1°C° 0 mm 3 mps 769 mmHg 39%
    05:00 -1°C° 0 mm 2 mps 769 mmHg 40%
    06:00 -1°C° 0 mm 2 mps 769 mmHg 40%
    07:00 -1°C° 0 mm 2 mps 768 mmHg 41%
    08:00 -1°C° 0 mm 2 mps 768 mmHg 39%
    09:00 0°C° 0 mm 3 mps 768 mmHg 36%
    10:00 +1°C° 0 mm 3 mps 768 mmHg 34%
    11:00 +2°C° 0 mm 3 mps 768 mmHg 34%
    12:00 +3°C° 0 mm 3 mps 768 mmHg 34%
    13:00 +4°C° 0 mm 4 mps 768 mmHg 34%
    14:00 +4°C° 0 mm 3 mps 768 mmHg 38%
    15:00 +4°C° 0 mm 3 mps 768 mmHg 43%
    16:00 +5°C° 0 mm 2 mps 768 mmHg 47%
    17:00 +4°C° 0 mm 2 mps 768 mmHg 50%
    18:00 +2°C° 0 mm 3 mps 768 mmHg 54%
    19:00 +1°C° 0 mm 3 mps 768 mmHg 57%
    20:00 +1°C° 0 mm 3 mps 768 mmHg 59%
    21:00 +1°C° 0 mm 3 mps 768 mmHg 61%
    22:00 0°C° 0 mm 3 mps 768 mmHg 63%
    23:00 0°C° 0 mm 3 mps 768 mmHg 64%

    25 February, Monday

    Time Temperature Precipitation Wind Pressure Humidity
    00:00 0°C° 0 mm 3 mps 768 mmHg 65%
    01:00 0°C° 0 mm 3 mps 768 mmHg 66%
    02:00 0°C° 0 mm 3 mps 768 mmHg 67%
    03:00 0°C° 0 mm 3 mps 768 mmHg 68%
    04:00 0°C° 0 mm 3 mps 767 mmHg 69%
    05:00 -1°C° 0 mm 3 mps 767 mmHg 71%
    06:00 -1°C° 0 mm 3 mps 767 mmHg 73%
    07:00 -1°C° 0 mm 3 mps 768 mmHg 75%
    08:00 +1°C° 0 mm 3 mps 768 mmHg 73%
    09:00 +2°C° 0 mm 3 mps 768 mmHg 72%
    10:00 +4°C° 0 mm 3 mps 768 mmHg 70%
    11:00 +5°C° 0 mm 3 mps 768 mmHg 70%
    12:00 +7°C° 0 mm 3 mps 768 mmHg 69%
    13:00 +8°C° 0 mm 3 mps 767 mmHg 68%
    14:00 +8°C° 0 mm 3 mps 767 mmHg 69%
    15:00 +8°C° 0 mm 2 mps 767 mmHg 70%
    16:00 +8°C° 0 mm 2 mps 767 mmHg 71%
    17:00 +7°C° 0 mm 2 mps 767 mmHg 76%
    18:00 +6°C° 0 mm 2 mps 767 mmHg 81%
    19:00 +5°C° 0 mm 2 mps 767 mmHg 86%
    20:00 +5°C° 0 mm 2 mps 766 mmHg 86%
    21:00 +3°C° 0 mm 3 mps 766 mmHg 86%
    22:00 +3°C° 0 mm 3 mps 766 mmHg 86%
    23:00 +3°C° 0 mm 3 mps 765 mmHg 84%

    26 February, Tuesday

    Time Temperature Precipitation Wind Pressure Humidity
    00:00 +1°C° 0 mm 4 mps 765 mmHg 82%
    01:00 +1°C° 0 mm 4 mps 764 mmHg 79%
    02:00 +1°C° 0 mm 4 mps 764 mmHg 79%
    03:00 +1°C° 0 mm 5 mps 763 mmHg 79%
    04:00 +1°C° 0 mm 5 mps 763 mmHg 78%
    05:00 +1°C° 0 mm 5 mps 762 mmHg 79%
    06:00 +1°C° 0 mm 5 mps 762 mmHg 79%
    07:00 +1°C° 0 mm 5 mps 761 mmHg 79%
    08:00 +2°C° 0 mm 5 mps 761 mmHg 75%
    09:00 +3°C° 0 mm 5 mps 761 mmHg 72%
    10:00 +4°C° 0 mm 6 mps 761 mmHg 68%
    11:00 +5°C° 0 mm 5 mps 761 mmHg 69%
    12:00 +6°C° 0 mm 5 mps 761 mmHg 70%
    13:00 +6°C° 0 mm 5 mps 761 mmHg 70%
    14:00 +7°C° 0 mm 5 mps 761 mmHg 67%
    15:00 +7°C° 0 mm 5 mps 761 mmHg 63%
    16:00 +8°C° 0 mm 4 mps 761 mmHg 60%
    17:00 +7°C° 0 mm 4 mps 761 mmHg 62%
    18:00 +6°C° 0 mm 4 mps 762 mmHg 64%
    19:00 +4°C° 0 mm 4 mps 762 mmHg 67%
    20:00 +4°C° 0 mm 4 mps 762 mmHg 68%
    21:00 +3°C° 0 mm 4 mps 762 mmHg 69%
    22:00 +1°C° 0 mm 4 mps 762 mmHg 70%
    23:00 +1°C° 0 mm 4 mps 763 mmHg 73%

    27 February, Wednesday

    Time Temperature Precipitation Wind Pressure Humidity
    00:00 +1°C° 0 mm 3 mps 763 mmHg 76%
    01:00 +1°C° 0 mm 3 mps 763 mmHg 78%
    02:00 0°C° 0 mm 3 mps 763 mmHg 80%
    03:00 0°C° 0 mm 3 mps 763 mmHg 82%
    04:00 +1°C° 0 mm 2 mps 763 mmHg 83%
    05:00 +1°C° 0 mm 2 mps 762 mmHg 83%
    06:00 -1°C° 0 mm 2 mps 762 mmHg 82%
    07:00 -1°C° 0 mm 2 mps 762 mmHg 81%
    08:00 +2°C° 0 mm 2 mps 762 mmHg 74%
    09:00 +4°C° 0 mm 2 mps 762 mmHg 66%
    10:00 +5°C° 0 mm 2 mps 762 mmHg 59%
    11:00 +6°C° 0 mm 2 mps 761 mmHg 55%
    12:00 +7°C° 0 mm 3 mps 761 mmHg 50%
    13:00 +9°C° 0 mm 3 mps 760 mmHg 46%
    14:00 +8°C° 0 mm 4 mps 759 mmHg 47%
    15:00 +8°C° 0 mm 4 mps 759 mmHg 47%
    16:00 +8°C° 0 mm 4 mps 758 mmHg 48%
    17:00 +7°C° 0 mm 4 mps 757 mmHg 52%
    18:00 +6°C° 0 mm 4 mps 757 mmHg 56%
    19:00 +5°C° 0 mm 4 mps 756 mmHg 60%
    20:00 +5°C° 0 mm 5 mps 755 mmHg 66%
    21:00 +5°C° 0 mm 5 mps 755 mmHg 72%
    22:00 +5°C° 0 mm 5 mps 754 mmHg 78%
    23:00 +5°C° 0 mm 5 mps 753 mmHg 82%
    Show more